Theta_e
284 284 285 286 285 284 284 283 282 283 283 282 280 282 283 282 276 275 282 284 283 285 287 289 290 291 291 291 292 293 294 296 297 297 297 298 298 297 297 296 297 297 297 298 297 297 297 297 297 298 299 298 298 299 300 303 306 306 306 308 309 309 308 308 308 309 311 312 312 314 316 316 314 314 315 315 316 315 313 312 314 314 314 314 313 313 312
284 284 285 285 285 284 283 283 283 283 283 283 283 283 283 283 281 282 283 283 282 285 286 289 291 291 292 292 293 294 295 295 296 296 296 297 298 298 298 297 297 296 296 296 296 296 296 296 296 297 297 297 297 297 298 300 302 304 305 304 306 307 306 306 307 308 310 312 312 312 314 315 317 316 315 316 317 315 315 314 314 313 312 313 312 312 311
282 285 286 285 284 283 281 283 285 284 282 283 283 282 282 283 282 281 282 281 281 286 287 289 290 290 292 292 291 292 293 295 296 296 295 296 298 300 299 298 299 298 297 296 295 295 295 295 295 296 296 296 297 297 296 297 299 300 302 302 304 305 306 307 307 308 308 311 311 311 311 312 313 314 314 314 312 312 312 312 314 313 313 312 311 310 309
278 282 283 283 283 282 281 281 283 283 282 280 282 281 283 280 280 281 281 279 278 285 287 288 289 289 289 288 289 290 292 295 296 295 295 296 296 298 301 300 300 299 298 297 296 295 296 296 296 295 295 296 296 296 296 297 299 299 299 301 303 304 305 306 307 308 308 307 308 309 309 308 309 310 309 309 309 310 311 312 313 312 310 310 308 308 309
274 281 283 282 279 277 275 276 281 283 282 283 283 283 284 283 281 279 276 277 284 285 288 287 287 288 288 288 289 289 291 293 295 295 295 296 297 297 298 298 298 298 298 297 296 296 295 296 296 297 296 295 295 296 297 298 298 298 297 297 297 298 300 304 303 301 302 304 303 303 304 304 304 305 304 305 306 306 307 307 307 310 309 308 308 307 308
271 281 280 279 276 269 269 281 286 286 282 282 280 279 281 284 284 280 282 283 285 285 285 285 286 286 287 288 290 291 290 291 294 296 296 296 296 296 297 297 297 297 298 298 299 298 298 298 298 298 298 296 297 297 298 297 296 297 297 296 295 296 297 298 298 300 301 301 301 301 301 301 301 301 302 302 303 304 304 304 305 305 305 305 305 306 306
276 276 278 274 269 268 281 286 287 287 286 285 282 282 283 284 284 284 283 284 284 285 285 286 287 288 289 290 290 291 291 291 291 293 296 297 297 297 297 297 297 298 298 298 299 300 300 299 299 298 298 298 298 298 296 296 296 296 296 297 297 296 296 297 299 300 300 300 300 299 299 299 299 299 299 299 299 299 301 301 301 302 303 302 303 302 300
274 274 271 267 264 278 285 285 286 289 286 284 283 281 283 284 283 284 282 283 284 285 286 286 288 288 289 289 290 291 291 291 291 290 291 295 298 299 299 298 298 299 297 299 300 300 302 300 300 300 299 299 299 298 298 297 296 296 296 297 296 296 298 296 298 298 299 298 298 297 298 298 298 297 297 298 298 299 297 297 299 300 300 301 300 298 297
272 269 271 270 278 279 279 277 281 282 279 281 278 273 278 283 283 283 282 283 284 285 286 286 287 288 288 286 287 291 291 291 292 291 291 292 293 299 300 300 299 300 301 302 302 302 302 301 301 301 301 301 300 299 299 297 295 295 295 295 295 296 297 296 297 298 299 298 298 297 297 297 296 297 298 299 297 297 296 294 296 297 298 298 299 299 296
274 270 271 271 270 267 272 280 285 286 286 285 284 278 278 284 284 284 283 282 283 284 285 285 285 287 285 282 284 289 291 292 292 292 291 292 293 294 298 298 298 301 302 302 304 304 303 302 303 302 301 301 300 300 299 299 298 296 294 295 295 296 295 294 297 298 298 298 298 297 296 296 296 296 296 297 297 297 298 297 296 296 297 298 298 298 296
275 272 269 267 266 266 275 279 283 286 285 286 285 280 276 282 283 284 283 282 283 283 283 283 285 282 278 279 283 288 289 290 291 290 290 290 291 291 292 292 293 295 297 304 305 305 303 303 304 303 302 301 301 300 300 299 298 296 295 295 295 296 296 296 296 298 297 298 297 297 297 296 296 295 296 297 297 296 296 295 296 295 297 296 296 294 294
274 273 272 270 273 271 279 282 283 285 285 286 280 272 271 282 283 284 283 283 283 283 283 283 283 280 276 279 282 286 287 288 288 289 289 290 290 290 291 291 291 293 294 294 298 301 301 301 302 302 303 301 301 301 299 299 298 297 297 297 297 297 297 297 296 296 297 298 297 297 297 296 296 297 296 296 297 296 293 294 294 293 295 295 294 293 293
277 277 273 274 276 281 283 283 284 284 286 281 272 268 273 281 282 283 284 283 284 284 283 282 280 283 284 285 287 287 288 287 287 288 289 290 291 291 291 291 293 291 292 292 292 292 294 300 301 302 302 299 298 298 299 299 298 299 300 300 299 298 298 299 296 295 296 296 296 297 296 296 296 297 297 297 295 297 295 293 294 294 293 292 293 291 291
275 276 274 273 276 281 284 285 284 285 282 273 271 280 286 283 282 284 283 283 283 283 282 282 282 283 285 287 286 286 286 286 287 287 288 288 289 290 290 292 292 291 292 292 292 292 292 293 297 299 299 296 296 296 297 297 298 299 300 299 298 298 298 297 296 296 295 296 297 299 297 296 297 297 296 296 296 295 292 292 294 293 291 291 291 290 289
276 274 273 273 270 280 288 287 282 283 273 275 282 285 286 286 284 284 283 283 283 283 282 283 283 283 284 284 284 285 285 285 286 287 288 288 288 288 288 289 290 291 290 291 292 292 293 294 295 295 296 295 295 295 295 296 298 298 298 299 299 298 297 297 297 296 297 296 296 298 297 296 297 296 294 296 296 295 292 293 293 292 290 289 289 288 288
274 273 272 272 279 282 286 283 275 280 281 283 284 283 282 284 283 283 282 283 284 284 283 283 283 283 283 284 284 285 286 286 286 287 287 288 289 289 289 289 289 290 289 290 290 291 292 293 294 295 295 294 295 294 295 297 297 297 297 298 298 297 296 297 297 297 297 296 295 294 294 293 293 294 292 293 294 294 293 293 291 290 288 289 288 288 287
276 275 278 283 284 283 284 284 283 283 285 285 285 283 283 283 284 286 284 284 285 285 285 284 283 283 284 284 285 285 285 286 286 287 287 287 287 288 288 289 290 289 289 289 289 290 291 290 291 292 293 293 293 293 295 297 296 297 298 298 297 297 297 296 295 295 295 294 294 293 293 293 293 292 292 292 293 293 292 292 291 290 288 289 289 288 286
283 283 283 285 284 284 284 285 285 284 285 285 285 284 283 285 286 285 285 286 286 286 285 284 283 284 284 284 285 285 286 286 287 288 288 288 288 288 288 288 289 289 290 290 290 290 290 291 291 291 292 291 291 293 294 295 296 297 297 297 296 296 296 296 295 295 295 294 293 293 293 292 293 291 292 292 291 291 292 291 291 291 288 287 287 287 286
277 273 282 281 281 283 284 284 285 286 287 287 287 286 286 286 285 284 284 284 284 284 284 285 284 284 284 284 285 285 286 286 287 287 287 288 288 288 288 289 289 290 290 290 290 290 290 291 291 291 291 293 293 293 293 294 294 294 294 295 295 295 295 295 294 293 293 293 292 292 291 290 291 290 290 290 292 292 293 291 289 288 288 288 287 286 287
270 273 280 282 283 283 284 284 284 285 286 286 286 286 286 285 286 286 286 285 285 285 284 284 283 284 285 284 285 286 286 286 287 287 288 288 289 289 290 290 290 289 289 289 289 290 290 291 291 291 292 292 293 294 294 294 293 293 293 292 292 293 294 294 294 293 292 291 292 292 288 288 289 289 289 291 292 293 293 292 290 289 288 288 288 289 287
277 278 280 281 282 282 283 284 284 284 284 284 285 285 285 285 285 285 285 286 286 285 284 284 284 284 285 285 285 285 285 285 285 286 286 287 288 289 289 289 290 289 289 290 290 290 291 291 291 291 292 292 293 293 293 293 293 293 293 291 291 290 291 292 292 291 293 292 292 289 285 284 283 283 284 287 291 291 291 293 295 293 291 290 290 289 289
270 273 277 279 273 273 280 282 283 284 285 285 284 283 284 284 284 284 284 284 285 285 285 284 284 283 283 284 284 283 283 283 284 284 285 285 285 286 287 288 288 288 289 289 289 289 290 291 291 291 291 292 292 292 292 292 293 293 293 293 291 291 290 290 292 291 290 290 290 288 287 285 285 285 286 287 286 288 288 290 292 293 292 291 291 289 288
269 276 281 280 278 278 280 282 284 284 285 284 284 284 284 284 284 284 283 283 283 284 284 285 284 284 284 284 284 282 283 283 284 284 284 284 284 285 286 285 286 286 286 288 288 288 289 290 291 291 290 291 291 291 291 292 292 292 292 292 292 293 291 291 290 291 289 288 288 288 288 287 287 287 285 287 287 288 288 289 291 291 291 290 290 290 290
279 281 281 281 280 280 281 283 283 284 286 285 285 285 285 284 284 284 283 283 282 282 282 283 285 285 285 284 283 282 283 284 284 284 284 285 285 285 286 285 285 285 286 286 287 288 289 290 290 290 290 291 291 291 292 292 292 292 291 291 290 290 291 291 291 290 289 289 289 289 287 287 288 287 286 285 285 287 287 287 288 289 289 289 289 289 289
279 283 284 284 283 283 283 284 285 285 288 287 285 285 285 284 284 285 283 283 283 284 284 285 285 285 284 284 284 284 284 284 285 285 285 285 285 285 285 286 286 286 287 288 288 289 289 289 289 289 288 289 290 290 291 291 291 291 291 291 291 291 291 291 291 290 289 289 289 289 288 287 286 287 287 286 285 283 285 287 287 287 288 288 288 288 288
284 284 284 284 283 283 283 285 284 283 284 285 284 284 286 289 287 285 284 285 286 286 285 283 282 283 284 285 285 285 285 284 285 285 284 284 285 285 285 285 286 286 286 286 287 287 288 288 288 288 287 288 289 289 290 290 291 290 291 291 291 291 291 292 292 290 290 290 290 290 290 289 288 287 287 287 285 284 284 283 285 286 287 287 287 287 287
284 284 282 281 280 280 281 282 281 282 284 284 283 284 284 283 286 287 286 287 287 286 284 284 284 285 286 286 286 286 285 285 285 284 284 284 284 285 286 287 287 287 287 287 287 287 286 287 287 287 287 288 289 289 290 290 290 290 290 290 291 289 288 289 292 293 292 290 291 290 289 289 287 286 286 285 285 285 285 284 283 283 282 284 286 287 286
283 284 283 280 278 279 281 283 283 284 285 285 283 284 284 282 282 283 283 283 283 284 285 285 285 284 284 285 285 285 285 284 284 284 284 284 285 286 287 287 287 287 287 288 288 288 288 287 287 287 288 289 290 290 290 290 290 289 290 290 290 290 291 290 291 290 290 289 291 290 290 289 288 287 285 285 285 284 284 284 284 283 282 283 283 286 287
283 283 283 284 283 282 283 284 284 285 284 284 285 284 283 282 281 282 282 283 284 285 284 284 285 285 285 285 285 285 284 284 283 283 284 285 286 286 286 286 286 286 287 287 288 288 288 288 288 289 289 291 292 292 292 292 291 291 290 290 290 290 290 290 291 291 291 290 291 291 288 287 286 285 285 285 285 285 284 283 283 283 283 284 285 285 286
283 283 283 283 284 284 283 283 284 285 285 284 284 285 285 283 282 282 284 285 285 283 283 283 283 284 284 284 285 285 284 283 283 284 284 285 285 285 285 286 286 287 286 287 287 288 288 288 288 287 288 290 292 292 293 293 292 292 292 292 291 291 290 290 291 291 291 291 290 287 287 287 287 286 286 285 285 285 284 284 284 284 283 284 285 285 285
282 283 284 284 283 282 281 283 285 285 283 282 282 283 285 285 284 284 283 283 282 281 282 283 283 284 285 285 285 285 285 284 284 284 284 284 285 285 285 285 284 283 284 285 285 286 286 286 287 289 292 293 294 295 295 294 294 294 293 293 293 289 288 288 288 292 292 290 288 288 287 287 286 286 286 285 285 285 284 285 285 285 285 285 286 286 286
283 281 282 283 282 282 283 284 283 282 282 282 282 282 282 283 282 281 281 281 282 282 283 283 283 283 284 285 285 285 284 284 283 284 284 284 284 284 285 285 285 284 285 285 285 285 286 287 288 290 292 293 294 294 293 293 293 294 294 291 294 293 290 288 289 290 290 288 288 288 287 287 286 285 285 286 285 285 285 285 285 285 285 286 286 286 285
282 281 280 281 282 282 283 283 282 282 282 281 279 281 281 282 282 283 282 282 283 283 283 283 284 284 284 285 285 284 283 283 283 283 283 283 284 284 284 285 285 285 285 285 286 287 287 287 289 291 292 294 294 293 293 293 292 293 295 295 295 293 288 287 289 290 289 288 288 288 287 287 287 287 286 286 286 286 286 286 286 285 286 285 286 285 285
281 281 281 281 282 282 282 282 282 283 283 282 281 281 281 282 282 282 283 284 285 284 283 283 284 284 285 285 285 283 283 282 282 282 282 283 283 284 284 285 285 285 286 287 286 287 287 288 290 290 292 293 293 293 292 292 292 292 293 293 292 291 290 289 289 289 288 287 285 286 287 286 288 287 287 287 287 287 286 286 286 286 285 285 285 285 286
283 282 283 283 282 281 282 283 283 283 283 281 282 282 282 281 282 283 284 285 285 284 284 284 284 284 284 284 284 283 282 282 282 282 283 283 283 284 284 285 285 285 286 286 286 286 287 288 289 289 291 292 293 292 292 292 292 292 292 292 290 291 290 290 290 288 288 288 289 289 289 288 288 286 287 288 288 287 286 286 286 286 285 285 285 285 285
284 284 284 283 283 284 286 285 284 283 283 283 283 282 281 281 281 283 284 285 286 285 284 283 284 284 284 284 283 282 282 282 282 283 283 284 284 284 284 284 284 284 284 285 286 286 287 288 286 286 289 290 291 292 291 292 292 291 291 291 290 290 290 290 290 290 290 291 289 289 289 287 288 288 288 288 288 288 287 286 286 286 285 285 285 284 284
284 285 284 284 283 284 284 284 283 283 283 283 283 282 281 282 284 284 285 284 284 284 284 283 283 283 283 284 284 283 282 282 283 283 283 284 284 284 284 283 283 283 283 283 285 286 287 287 286 286 289 290 290 291 289 287 292 292 292 292 291 290 290 290 290 290 290 289 289 289 288 288 288 288 288 289 288 287 287 287 286 285 285 284 284 284 284
284 284 284 283 283 283 283 283 283 282 282 281 282 282 283 283 283 282 282 282 282 283 284 283 282 283 283 284 283 282 281 282 282 283 283 284 284 283 283 282 282 283 282 282 285 285 286 286 286 287 289 289 291 291 289 287 288 292 292 291 291 290 289 289 289 289 289 289 288 289 288 288 288 288 288 288 288 287 286 285 285 285 284 284 284 284 284
284 283 283 283 283 283 283 283 282 281 282 282 281 282 283 282 282 281 281 281 282 282 282 282 282 282 283 283 283 282 281 282 282 282 283 283 284 283 282 282 283 283 283 285 285 285 286 286 287 288 288 288 290 290 288 287 288 292 292 291 291 290 289 289 289 288 288 288 289 288 288 287 287 287 287 287 286 286 286 285 285 285 284 284 283 283 283
282 283 283 283 283 283 283 282 281 281 281 282 282 282 283 282 282 281 281 281 281 282 282 282 281 281 281 281 282 282 282 282 282 282 282 282 283 282 282 282 283 284 284 284 285 285 285 285 286 288 287 287 288 288 288 288 288 290 292 291 291 290 290 290 290 289 289 288 288 286 287 287 286 286 286 286 286 285 285 285 284 284 283 283 283 283 283
284 284 283 283 283 282 282 281 281 282 281 280 281 281 281 282 282 281 281 281 281 281 281 282 281 281 281 281 281 282 282 282 282 281 282 282 281 281 280 280 282 283 284 284 284 285 286 285 286 286 287 287 287 286 287 287 288 289 289 289 290 289 289 289 289 289 288 288 287 287 286 286 286 286 285 285 285 284 284 283 283 282 282 282 281 281 281
284 284 284 284 284 284 283 283 282 282 281 281 281 281 281 282 282 281 281 281 281 281 281 281 282 281 281 282 282 281 281 281 281 281 281 280 279 279 279 280 283 283 283 284 284 284 285 285 286 285 286 286 287 285 285 287 287 287 287 287 287 287 287 287 287 287 287 286 286 285 285 285 284 284 284 284 283 283 282 282 281 281 281 281 281 281 280
284 285 284 284 284 284 284 283 282 281 280 280 281 281 281 281 281 280 281 280 280 280 280 280 281 281 281 281 280 280 280 280 280 281 281 281 281 281 280 280 281 282 283 283 283 283 284 284 284 285 285 285 286 285 285 287 287 286 286 286 285 285 285 285 285 285 285 284 284 283 283 283 283 283 282 282 281 281 281 280 280 280 280 280 280 280 280
286 285 285 285 285 285 284 284 283 282 281 281 281 281 281 281 280 280 279 279 279 280 279 279 280 280 280 280 279 279 278 279 279 279 279 279 280 281 282 281 281 282 282 282 281 282 282 283 283 284 284 284 284 285 286 287 287 286 286 285 285 285 284 284 284 283 283 283 283 283 283 282 282 282 281 281 281 281 281 280 280 280 279 279 279 279 278
287 286 285 285 285 285 285 284 283 281 281 281 281 281 281 280 280 279 280 279 279 279 280 279 279 280 279 279 279 279 279 279 279 278 278 278 278 279 281 282 281 281 282 282 281 281 282 282 283 283 283 283 283 284 285 285 285 285 285 285 285 284 284 284 283 283 283 283 283 282 282 282 282 282 281 281 281 280 280 280 280 280 279 279 279 278 278
287 287 286 285 285 285 286 286 285 283 281 281 280 281 281 281 280 279 279 279 278 278 279 279 279 279 280 279 279 279 278 278 278 279 279 278 278 279 280 281 281 281 282 282 281 281 281 283 283 283 283 283 283 283 283 283 283 284 284 284 284 284 283 283 283 283 283 283 283 282 282 282 282 281 281 281 281 281 281 281 280 279 279 279 279 279 279
286 287 287 286 286 286 286 286 285 283 281 280 280 280 280 280 281 280 279 279 279 279 279 278 279 279 279 280 279 278 277 277 278 279 279 279 280 280 281 282 282 282 281 281 281 281 282 282 282 282 282 282 282 282 282 282 282 282 282 282 282 283 283 283 283 283 283 283 283 283 282 282 282 281 282 282 282 282 281 281 281 281 282 282 282 282 282
286 287 287 287 287 286 286 285 284 282 280 280 281 280 281 280 280 280 280 280 279 279 279 279 279 279 278 279 279 279 278 278 276 277 278 278 279 279 279 279 280 281 281 281 281 282 282 282 282 282 282 282 281 280 281 281 281 281 281 281 281 281 281 281 282 283 282 282 282 282 281 281 281 281 281 281 281 282 282 282 282 282 282 282 282 282 281
287 287 288 287 287 286 286 285 283 281 280 280 281 280 281 281 281 280 280 279 279 279 278 278 279 279 279 280 279 279 279 279 277 276 278 278 279 279 279 281 282 281 280 279 279 279 282 282 282 282 282 281 279 279 279 280 280 280 280 280 280 280 281 281 280 280 281 281 281 281 280 280 280 280 280 280 281 281 281 281 281 281 281 281 281 281 281
286 287 286 286 286 286 285 284 282 281 281 280 280 280 281 281 279 280 280 279 279 279 277 278 278 278 278 278 278 278 279 279 279 279 279 279 278 279 280 280 280 281 281 279 279 279 281 281 281 281 281 279 279 279 279 279 279 279 279 280 280 280 281 282 282 282 281 281 280 280 280 280 280 281 280 280 280 279 279 280 280 281 281 281 280 280 280
284 284 285 285 286 286 287 286 285 283 281 281 281 281 281 280 281 281 281 280 279 279 278 278 278 277 277 278 278 278 279 279 279 280 278 278 279 281 280 280 280 281 280 279 279 278 277 278 278 279 279 279 279 279 279 279 279 279 280 279 279 279 280 280 280 279 279 280 279 279 279 279 279 279 279 279 279 279 279 279 279 279 279 279 279 279 279
286 285 286 285 286 286 286 286 285 285 284 282 281 280 281 281 280 280 279 282 280 279 279 278 277 277 277 277 278 277 277 278 279 279 280 279 278 278 280 281 279 279 279 278 278 279 278 279 281 281 280 278 277 278 280 280 279 279 279 279 279 279 279 279 279 278 279 279 279 279 279 279 279 279 278 277 278 279 279 279 279 278 278 277 277 278 278
Wind_Speed
1 2 4 5 4 2 1 4 4 5 3 5 4 0 1 2 2 3 1 8 7 1 3 5 6 5 6 7 6 6 5 3 4 5 6 5 4 3 4 4 3 4 4 4 4 4 3 4 6 5 5 5 4 4 3 2 4 5 3 5 6 8 8 7 7 7 6 6 9 11 9 9 5 1 7 7 7 6 5 11 10 8 9 10 9 5 4
5 4 5 6 8 6 7 8 6 4 5 3 3 3 3 7 3 5 7 11 7 4 5 5 6 5 6 5 7 12 14 11 9 6 4 3 4 5 6 6 5 4 2 1 1 4 4 4 4 5 5 5 4 4 4 3 4 1 2 5 6 7 9 5 4 6 7 6 6 7 5 11 13 13 11 11 12 13 14 11 8 8 8 8 8 9 7
1 3 6 8 7 6 4 6 9 8 5 11 7 4 4 7 7 4 8 12 9 5 5 6 6 5 10 15 15 11 10 11 10 9 9 8 5 4 4 5 7 6 6 5 4 4 3 3 2 4 4 4 4 5 4 3 2 2 6 5 6 7 6 4 4 3 2 5 7 9 10 10 9 9 8 6 4 4 3 4 6 7 7 7 7 6 4
1 2 5 4 5 6 8 7 10 10 7 9 6 7 4 3 4 1 9 9 4 5 8 4 9 14 16 14 12 11 10 10 11 11 11 9 9 7 7 7 7 7 7 7 6 5 4 3 3 3 4 4 5 4 4 4 2 2 4 4 5 6 5 5 5 5 4 4 6 6 6 5 6 6 5 4 5 5 4 5 5 5 7 6 4 2 1
1 2 4 5 4 4 6 5 7 3 6 8 6 10 13 7 2 5 6 3 0 2 4 8 10 12 13 15 12 11 11 10 10 11 12 11 10 11 11 11 11 10 8 7 7 7 5 4 3 2 2 4 4 3 3 2 2 5 4 3 4 3 3 4 3 3 4 6 7 7 7 6 5 4 4 3 1 1 2 1 2 0 1 1 1 1 1
2 1 3 2 4 0 2 2 4 1 5 12 15 6 6 11 8 4 3 2 0 3 6 7 7 11 10 9 9 9 9 9 11 12 11 11 10 10 10 10 10 10 9 9 8 7 6 7 6 4 4 2 2 3 2 2 4 3 4 4 4 3 4 5 5 5 6 6 6 6 5 5 5 5 5 5 3 1 1 2 1 0 0 1 2 1 1
2 2 3 1 2 3 3 0 2 13 16 17 16 11 10 7 6 6 6 5 6 4 4 3 2 7 7 10 12 13 12 11 10 11 11 10 9 9 9 10 10 10 11 10 10 11 10 10 9 9 9 7 6 7 6 3 3 1 2 2 2 2 3 4 5 5 5 6 5 5 5 5 5 5 4 4 4 3 4 4 4 5 4 2 1 2 3
2 2 2 2 5 4 6 3 3 2 7 7 11 11 9 7 5 3 5 4 5 6 6 4 2 2 6 10 12 10 10 9 9 10 10 9 7 6 5 8 8 9 11 10 8 9 7 9 10 10 11 9 9 6 5 5 4 2 1 1 2 1 0 3 5 4 5 5 5 5 5 4 5 4 4 3 3 2 3 3 2 2 2 5 5 4 4
5 5 7 5 3 1 3 2 3 2 2 2 3 7 2 4 3 4 3 5 5 6 5 5 5 2 1 9 9 8 9 9 8 8 8 9 9 5 5 5 6 4 3 4 6 6 8 9 9 9 9 9 8 7 6 6 5 5 5 4 4 2 2 1 4 4 5 5 5 5 4 4 3 2 2 1 1 1 2 3 3 2 1 2 5 6 5
6 7 2 0 2 5 1 3 4 1 1 2 2 9 1 4 4 2 5 4 5 6 6 8 8 3 7 10 8 8 7 6 7 8 6 7 8 9 7 8 8 8 4 3 6 5 6 9 9 9 9 9 9 8 7 5 6 5 5 5 4 1 3 4 2 4 4 5 5 4 4 4 3 2 1 0 1 1 1 1 3 3 1 2 2 5 6
3 3 5 3 5 2 1 5 5 8 4 1 4 7 3 3 3 4 4 6 6 5 7 8 9 10 6 3 5 7 7 6 5 7 7 6 5 5 6 6 8 8 8 5 3 5 6 6 7 6 9 12 9 8 7 6 4 4 4 3 3 1 3 2 1 2 2 5 5 5 5 4 4 3 3 3 1 1 2 2 1 1 2 2 2 2 3
3 5 4 2 1 1 1 3 5 7 6 2 6 2 2 4 6 6 5 7 6 5 6 5 8 8 4 5 7 6 5 4 5 5 6 8 9 8 6 7 6 6 4 4 2 2 2 1 2 7 7 9 11 11 9 7 5 6 6 5 2 1 1 1 2 1 1 1 3 5 5 4 3 4 4 2 2 1 2 3 3 3 3 3 3 3 2
1 5 2 3 1 1 2 3 5 8 2 3 3 5 1 2 2 4 6 6 5 4 5 4 5 1 0 4 6 6 6 6 7 7 7 7 6 8 9 9 8 7 8 7 5 4 3 4 4 5 5 6 6 7 8 8 8 6 5 7 10 5 2 0 1 2 1 2 2 1 2 2 2 1 3 4 3 2 1 3 4 4 4 4 4 4 4
2 0 5 1 2 1 3 4 4 4 2 1 3 2 1 1 3 3 4 4 3 3 3 2 1 3 3 3 1 5 7 9 7 3 2 4 7 7 6 8 8 8 8 7 8 8 5 4 3 4 4 4 4 4 5 7 8 7 8 7 7 5 2 1 1 1 1 1 1 2 1 2 1 1 2 1 2 3 3 4 5 5 4 4 4 4 4
2 4 4 3 2 2 3 5 7 7 6 0 1 2 1 2 2 4 3 2 1 3 4 1 1 3 5 5 6 5 5 6 7 11 13 11 8 6 5 5 5 6 8 8 6 7 8 8 7 4 4 5 6 5 6 9 9 6 7 7 6 5 3 3 3 2 2 3 2 2 1 1 1 1 1 1 1 1 3 4 5 5 4 4 4 4 4
2 3 4 2 2 5 6 6 5 1 4 3 0 1 2 2 1 2 3 2 1 1 1 2 4 4 4 5 6 7 7 7 7 7 7 8 9 10 9 8 6 4 5 5 7 6 6 6 6 8 8 7 6 7 9 9 8 8 7 7 7 7 5 5 4 4 4 2 1 1 2 2 1 1 2 2 2 1 2 4 6 5 4 5 5 4 4
3 1 2 1 3 4 6 8 5 4 2 2 2 3 2 2 3 0 2 3 3 2 1 3 4 4 5 5 5 5 5 6 7 7 6 6 7 7 7 9 8 6 6 6 6 7 7 5 4 4 4 5 7 8 9 8 9 9 8 6 5 5 5 4 5 5 4 4 5 4 4 3 2 2 1 1 0 0 2 3 5 5 4 5 6 6 4
8 6 4 3 6 4 3 3 3 4 1 1 2 4 3 2 2 2 3 3 3 4 3 4 3 3 5 5 6 6 6 6 6 6 6 6 5 6 6 6 6 7 9 9 10 10 8 5 6 5 4 3 4 6 6 4 4 5 6 6 8 8 8 6 7 6 5 5 4 4 2 3 2 2 0 0 1 2 3 4 4 5 6 5 5 5 5
4 1 3 3 3 3 3 4 3 3 3 2 1 2 2 2 2 3 2 1 3 3 4 4 4 5 4 5 5 4 5 6 6 7 7 8 7 7 7 6 6 8 8 10 11 10 11 7 5 5 5 5 5 5 5 5 4 3 3 3 6 6 6 7 6 4 5 5 5 4 4 4 3 3 4 4 3 4 5 5 3 3 5 5 4 4 6
4 3 2 2 1 2 3 3 4 5 4 2 2 1 1 1 1 2 0 1 3 1 3 3 3 5 4 5 6 6 6 6 7 8 8 9 9 8 7 7 7 7 7 8 10 10 10 9 6 6 6 6 7 6 5 5 4 3 3 3 3 4 5 4 4 3 4 5 5 4 3 4 5 4 2 4 6 6 7 7 8 7 7 6 7 7 6
1 1 1 3 2 4 2 3 1 1 1 1 0 1 2 1 1 1 1 1 1 1 3 1 3 4 4 4 5 6 7 7 7 8 10 10 10 10 10 9 7 8 8 9 10 11 12 10 8 8 8 8 7 7 6 5 4 4 5 4 3 3 3 3 5 4 5 5 5 4 5 4 5 2 2 2 4 5 4 6 11 11 9 8 8 8 8
1 1 1 2 3 5 6 4 3 2 0 2 2 3 3 2 2 1 1 3 3 2 2 4 4 5 5 5 6 8 7 7 9 9 10 10 11 12 11 10 10 11 11 10 11 13 13 11 9 9 9 9 7 5 4 4 4 4 5 5 4 4 4 4 4 4 3 4 4 6 6 6 6 5 6 8 4 1 3 3 4 5 9 9 10 8 7
2 4 5 3 3 3 6 4 4 2 1 3 4 2 1 2 1 1 2 4 4 4 4 4 5 5 5 8 7 8 8 9 9 9 10 11 11 12 11 12 12 12 13 13 12 13 13 11 11 10 8 7 6 5 4 4 4 4 4 5 5 6 5 4 4 4 3 3 3 5 6 7 6 7 5 6 11 11 6 2 7 9 6 5 11 10 11
1 3 3 3 2 1 2 3 3 2 0 3 2 0 1 2 1 2 4 3 3 3 3 3 3 5 7 7 7 10 11 11 11 11 11 11 11 12 12 12 13 14 14 13 12 12 9 8 9 8 9 8 7 7 6 6 5 5 5 4 5 5 4 5 6 6 5 4 5 6 6 6 7 8 7 6 5 11 13 10 8 7 11 13 14 12 12
1 0 0 0 1 0 1 0 1 1 1 2 1 1 1 2 3 2 4 3 2 2 2 4 4 3 6 8 9 11 13 13 12 12 14 14 14 13 13 13 14 13 12 11 11 11 11 10 9 9 10 10 7 7 6 5 5 6 6 6 8 6 6 6 5 5 4 6 6 7 7 6 6 6 8 7 8 5 8 12 13 11 7 11 12 12 11
4 2 1 0 1 2 2 4 4 2 1 1 1 2 2 3 3 3 3 1 0 0 1 3 4 5 5 8 10 13 14 14 14 13 12 12 13 12 12 13 13 12 12 11 12 11 11 11 11 10 11 11 9 9 8 8 7 7 8 8 8 7 7 8 7 6 7 7 7 8 8 9 9 8 8 8 8 8 8 5 8 10 12 10 11 14 12
2 3 2 3 1 3 2 1 3 3 3 2 1 1 1 2 2 0 0 1 2 3 3 3 4 5 7 7 9 10 12 12 12 11 13 14 15 15 13 12 13 14 13 12 11 11 12 11 11 11 12 12 10 10 10 10 10 11 11 10 9 10 13 10 7 8 7 7 8 8 8 8 8 8 8 7 9 9 9 9 8 7 6 5 6 8 11
1 0 1 0 2 2 2 3 3 2 1 1 1 2 1 3 3 2 2 3 4 4 5 5 5 7 8 8 9 10 10 10 11 12 12 12 12 11 11 13 13 13 12 11 10 9 9 11 11 12 13 12 11 11 11 11 12 12 12 11 11 10 10 11 9 7 7 6 8 9 9 8 8 8 8 8 8 7 7 8 10 9 6 5 5 6 12
1 1 1 1 3 3 2 0 1 1 2 1 1 0 1 1 3 3 3 2 3 5 5 5 6 7 7 9 9 10 10 10 12 14 12 10 10 10 10 11 12 11 10 10 9 9 9 10 10 12 13 13 13 12 12 12 12 12 11 11 10 10 9 9 10 9 8 6 7 9 8 8 7 7 7 7 8 8 8 9 8 8 9 8 8 7 6
0 0 1 0 1 1 2 1 2 1 1 0 1 1 1 1 2 2 2 2 3 4 5 6 6 7 7 9 9 9 10 11 11 10 9 9 9 8 8 9 8 6 6 7 7 7 8 9 11 12 14 13 13 12 12 12 11 12 13 13 12 11 9 8 8 9 9 8 7 9 9 8 8 8 9 9 9 9 9 9 10 10 9 7 7 9 9
0 1 1 1 2 3 2 1 1 3 2 1 1 1 2 2 0 1 2 3 3 4 5 5 6 8 8 9 9 8 9 9 9 9 8 8 7 7 6 6 7 7 7 8 8 9 10 11 11 11 10 9 9 8 8 9 9 11 11 11 11 14 15 13 10 8 8 7 8 9 8 8 8 9 10 9 8 8 8 8 8 8 8 8 8 8 7
1 3 4 1 0 4 1 0 2 3 1 0 0 2 2 2 1 1 2 3 4 4 4 6 8 9 9 9 8 8 9 9 8 7 7 7 7 8 8 8 7 7 7 8 8 8 8 8 9 10 10 9 7 7 7 7 8 9 10 10 10 9 12 16 9 8 7 8 9 10 10 10 9 7 8 10 9 9 9 9 9 8 8 8 7 7 6
1 1 2 1 1 1 2 1 3 2 1 1 3 4 4 3 3 4 4 4 3 3 3 5 6 7 9 8 8 9 9 8 6 6 9 10 10 10 9 8 7 7 6 6 7 7 7 9 10 11 10 8 7 6 6 6 5 7 8 7 8 8 8 9 9 7 7 8 10 11 8 10 11 11 10 9 9 9 9 9 8 7 6 6 6 6 6
5 5 5 4 5 4 5 4 3 3 4 4 4 4 4 4 4 5 4 4 4 3 3 5 6 7 8 7 8 8 9 9 9 10 11 11 11 10 9 8 7 6 6 5 6 8 9 9 10 10 9 8 9 8 8 7 5 5 5 6 6 7 7 7 9 8 8 6 2 8 11 8 10 10 9 9 9 9 9 8 7 7 7 6 6 5 6
5 5 4 4 4 3 4 5 4 4 4 4 5 4 4 4 4 5 5 4 4 3 3 4 4 6 7 6 8 9 9 10 11 11 11 11 10 9 8 7 6 5 6 8 10 10 11 11 11 10 8 8 9 10 10 10 10 9 9 9 8 8 8 7 7 9 8 8 10 6 9 9 8 8 9 10 9 9 8 7 7 7 7 7 5 4 4
4 3 3 3 4 4 3 3 3 4 4 4 5 4 4 4 3 3 3 4 3 3 3 3 3 5 6 6 7 10 9 10 11 11 10 11 10 7 7 6 8 10 10 11 12 12 12 11 15 15 10 9 9 10 10 11 11 11 11 11 11 10 9 9 9 9 9 9 9 8 8 9 10 9 8 9 8 8 8 7 7 7 7 6 5 5 5
4 4 3 3 3 1 1 1 2 3 4 4 3 2 2 1 1 0 2 2 3 2 2 3 3 5 6 4 4 7 7 8 8 8 8 8 7 7 6 9 11 10 10 11 12 12 11 10 14 14 10 9 10 11 12 12 8 10 11 12 11 11 10 10 10 10 10 9 9 9 10 9 7 8 8 8 7 7 7 7 6 6 6 6 5 6 6
3 4 4 4 3 3 3 4 4 4 3 2 1 1 1 1 1 3 3 3 3 2 2 3 3 2 3 2 3 8 10 10 10 10 9 8 7 7 9 11 10 9 10 8 10 10 9 11 13 10 8 9 10 11 14 19 15 11 10 10 10 9 10 10 9 8 8 8 7 7 7 7 8 7 7 7 7 7 7 7 6 6 6 6 6 6 6
2 1 4 4 3 3 4 4 3 3 3 2 1 0 0 3 3 4 3 3 3 2 3 3 3 3 4 3 4 5 8 9 9 9 8 7 6 5 8 8 7 6 5 7 8 7 9 10 7 9 9 8 9 9 12 14 14 11 10 10 10 9 9 9 8 8 8 7 7 7 7 8 7 8 7 7 7 6 6 7 7 6 6 6 7 6 6
4 4 5 4 4 4 4 4 4 4 4 2 2 1 1 3 3 4 3 3 3 2 3 2 3 4 4 4 3 3 5 7 7 7 8 6 5 6 7 11 12 10 10 11 8 8 11 13 10 8 8 8 8 8 8 11 11 9 9 9 9 8 8 8 8 8 8 9 9 9 8 8 7 7 7 7 7 7 6 7 7 7 7 6 6 6 6
6 5 4 4 5 4 4 4 4 5 4 3 3 3 3 3 4 3 2 2 2 3 3 3 3 3 3 4 4 3 3 4 5 7 6 5 7 8 9 10 10 10 11 9 8 9 11 10 9 8 8 8 8 8 8 11 9 8 8 8 8 8 8 8 8 8 8 8 7 7 7 7 8 8 7 7 7 7 7 7 7 7 7 7 6 6 6
7 5 5 5 5 5 5 4 3 4 4 2 4 4 3 4 5 4 3 3 3 3 3 3 3 3 3 4 4 4 4 4 3 5 6 8 8 7 9 8 9 8 13 12 11 10 10 10 10 9 8 8 8 12 11 8 8 8 8 8 8 8 8 8 8 8 8 8 7 7 7 7 8 8 7 8 8 7 8 8 8 7 7 7 7 6 6
6 6 6 6 6 6 5 3 3 4 4 4 4 4 3 4 4 4 4 4 3 3 3 3 3 3 3 4 4 4 3 3 4 4 4 6 6 5 6 5 7 9 13 9 9 8 9 8 8 8 11 11 9 13 12 9 8 8 8 8 8 8 8 8 8 8 8 8 8 8 8 8 8 8 8 8 8 7 8 8 8 7 7 6 6 6 6
6 6 6 6 6 6 5 4 3 2 4 5 5 5 4 4 4 5 4 4 3 2 3 4 4 3 3 3 4 4 3 3 4 4 4 5 6 7 6 6 6 8 12 8 8 8 8 8 8 12 15 15 15 14 9 8 8 8 8 8 8 8 8 9 9 8 9 8 8 8 8 8 8 8 8 8 8 8 8 8 7 7 6 6 6 6 6
6 6 6 7 6 5 5 5 4 4 5 4 4 4 4 4 4 4 5 4 3 3 3 4 4 4 3 3 3 3 2 2 2 2 5 5 6 6 6 6 8 7 8 9 7 8 8 8 12 16 14 15 15 13 9 8 8 8 8 8 8 8 8 8 9 8 8 8 8 8 8 8 8 8 8 8 7 8 7 7 7 6 6 6 6 6 5
7 7 6 6 6 6 7 7 6 4 4 4 4 4 4 5 5 4 5 5 4 4 4 4 4 5 5 4 4 3 2 3 3 3 3 3 3 1 3 5 5 6 10 10 7 8 8 13 15 14 15 14 13 11 9 8 8 8 8 9 8 8 8 8 8 8 8 8 8 8 8 8 8 7 7 7 7 7 7 7 6 6 6 5 5 5 4
7 6 6 6 7 6 5 5 5 3 3 4 5 5 4 4 5 4 4 5 4 4 4 4 4 4 4 5 6 5 3 4 4 3 3 3 3 3 4 6 7 8 8 7 7 7 8 9 11 14 14 14 12 9 9 9 9 9 9 8 8 8 8 8 8 8 8 8 8 8 8 8 7 7 7 7 7 6 6 6 6 5 5 5 5 5 5
7 7 7 6 7 6 5 4 4 4 5 8 8 8 6 5 5 4 4 5 4 4 4 4 4 4 4 4 3 4 4 5 7 3 1 2 3 3 4 4 6 8 9 8 9 9 13 13 13 13 13 11 9 8 8 8 8 8 8 8 8 8 7 7 7 7 7 7 7 7 6 6 6 6 6 6 6 6 5 5 5 5 4 4 4 4 4
6 7 7 6 6 5 5 5 5 4 6 6 6 6 6 7 6 4 4 5 4 4 4 4 4 4 4 4 4 3 4 3 3 3 2 2 3 3 3 5 8 8 7 6 7 6 10 13 12 12 12 9 7 7 7 8 8 8 8 8 8 7 7 7 7 7 7 7 6 6 6 6 6 6 6 6 6 6 6 5 5 4 4 4 4 4 4
6 5 6 7 7 6 5 5 6 7 7 5 7 7 6 6 5 5 6 7 7 5 4 3 4 4 4 4 4 4 3 2 1 1 1 1 1 3 3 3 4 6 6 6 5 6 7 10 10 10 8 7 7 7 7 7 7 7 7 8 8 7 7 8 7 8 7 7 6 6 6 7 7 7 7 6 6 6 6 5 5 6 9 6 4 4 4
5 6 7 7 8 7 6 6 7 7 6 7 7 7 7 8 9 7 8 8 7 6 5 4 3 3 4 4 4 4 3 3 2 3 3 3 4 5 4 4 3 4 4 5 5 6 5 5 5 6 7 6 6 6 7 7 7 7 7 7 7 7 7 7 6 6 6 6 6 6 6 6 6 6 6 6 6 6 5 5 5 4 4 4 4 4 4
6 5 6 6 6 6 6 6 5 6 7 6 6 7 8 9 8 6 6 9 9 8 8 7 5 4 3 4 5 4 4 4 3 1 1 3 4 4 5 5 5 4 4 4 4 5 5 5 6 6 6 5 5 6 6 7 7 6 6 6 6 7 7 6 7 7 7 8 8 7 7 7 7 7 6 5 5 5 5 5 5 5 4 4 4 4 4
Wind_Direction
142 92 66 44 57 88 78 30 22 1 358 61 85 208 204 145 122 152 95 87 79 1 28 39 38 28 41 35 28 27 28 63 69 37 35 48 49 68 108 120 122 126 132 135 124 104 85 78 84 78 68 54 42 40 44 24 41 80 121 118 107 84 30 30 57 42 39 78 99 109 108 88 65 88 139 163 173 150 168 199 178 180 180 192 218 253 250
40 40 54 53 53 23 39 31 26 20 51 96 84 49 51 97 117 148 122 83 68 13 329 342 0 354 46 40 37 33 34 30 29 42 36 21 16 50 77 75 61 30 21 15 80 95 74 75 79 78 74 67 58 54 35 42 84 79 87 95 121 127 136 165 157 168 149 126 106 92 124 155 174 188 193 188 176 172 181 192 184 181 181 180 195 210 216
347 330 46 50 60 73 57 21 17 19 38 52 41 57 10 65 68 65 84 74 46 351 351 16 19 28 45 41 33 24 24 25 32 37 22 6 13 62 49 68 72 77 68 39 21 39 53 61 67 80 83 77 60 53 50 55 65 104 98 81 70 102 123 137 153 171 140 140 143 169 185 176 179 186 182 184 167 193 207 147 157 176 177 187 203 202 196
305 308 75 52 63 79 76 28 8 360 24 58 6 45 329 93 125 99 67 53 26 324 346 26 45 50 52 47 32 27 19 18 26 27 17 20 20 14 25 25 44 53 64 65 51 26 8 5 12 49 65 61 69 51 48 50 31 36 81 102 120 129 140 143 155 164 146 133 147 176 170 170 153 177 160 150 151 149 141 152 186 173 168 176 179 171 146
254 269 94 71 62 35 18 357 333 342 66 116 84 40 28 25 140 70 87 125 211 320 308 62 46 56 56 50 33 26 22 20 29 33 28 23 26 44 45 37 33 29 35 47 53 44 24 359 13 3 44 61 54 56 52 350 50 59 61 71 95 103 128 146 122 126 138 149 151 148 154 152 143 120 125 112 119 149 221 231 101 81 333 33 270 151 138
251 304 81 59 55 104 247 263 324 213 114 91 72 44 23 18 37 95 118 135 304 11 26 52 71 64 61 63 56 50 43 28 24 27 35 34 31 33 40 42 38 31 22 19 18 20 25 18 4 344 14 17 5 355 350 13 58 27 50 35 63 84 117 123 131 138 137 131 126 127 127 121 109 99 91 101 110 100 84 66 88 157 150 218 242 230 184
190 252 54 50 221 229 193 182 74 102 99 89 95 74 43 29 40 54 49 24 16 32 63 51 87 102 84 64 55 44 36 35 34 29 25 26 25 31 29 33 30 27 20 8 10 16 13 9 14 9 4 4 4 5 344 355 13 28 22 23 23 33 84 90 107 112 113 117 121 128 116 100 86 78 78 73 68 75 105 125 137 143 153 150 129 106 95
60 54 81 142 246 182 162 162 90 102 93 114 79 49 22 20 19 38 46 10 355 5 20 24 12 179 107 71 54 43 36 34 35 31 23 17 25 22 20 45 32 32 26 347 357 359 357 16 13 14 5 352 9 353 357 360 335 348 359 348 315 342 314 102 123 121 115 108 105 98 86 74 72 62 62 68 71 27 63 45 55 103 96 96 126 124 107
179 192 150 201 148 132 3 3 353 30 69 8 117 110 33 352 350 37 33 6 4 5 7 357 359 315 262 53 40 31 31 25 27 32 28 20 17 23 360 24 30 46 101 6 359 360 359 5 9 1 357 352 353 352 11 11 29 13 353 315 287 293 284 209 157 150 133 125 121 107 98 98 92 93 82 46 53 45 54 17 16 360 13 122 141 142 145
125 133 158 25 158 214 240 260 275 238 196 179 174 109 103 346 344 19 54 30 356 359 358 7 350 17 62 30 6 359 6 22 22 17 25 20 18 12 14 11 5 358 1 17 349 30 10 352 349 350 349 342 345 347 349 359 19 4 11 0 338 327 300 298 241 179 165 144 144 138 127 143 163 174 134 63 87 137 92 2 6 3 129 105 142 147 145
93 108 144 193 172 237 202 273 292 303 311 63 123 84 91 318 308 318 53 41 17 21 21 2 27 46 47 346 319 329 336 359 18 18 3 7 13 5 5 5 351 351 343 336 334 342 340 342 336 351 339 335 332 335 328 331 346 352 340 338 328 22 16 351 196 229 200 151 149 148 158 177 167 161 180 197 181 98 81 80 65 120 103 112 91 83 129
172 155 141 197 83 160 270 286 293 300 309 12 85 110 193 358 349 333 29 53 37 23 28 26 53 61 35 324 310 309 315 339 355 17 4 357 354 355 352 350 341 330 342 15 345 290 263 127 8 306 329 317 311 312 316 322 329 322 311 299 282 277 311 78 69 82 123 157 157 158 178 183 173 178 184 143 156 132 96 99 101 96 98 88 88 57 56
43 91 75 77 37 321 290 286 292 299 299 75 97 190 217 287 31 41 66 61 53 36 42 45 55 353 229 270 277 306 327 2 4 354 357 359 355 351 348 345 342 346 339 338 323 298 238 210 204 203 210 245 264 277 288 301 304 303 301 308 300 288 272 284 56 85 71 125 141 220 194 192 213 230 166 174 152 174 109 81 82 83 82 82 78 57 47
12 51 95 139 124 230 275 267 336 340 62 90 141 114 158 120 77 66 76 78 52 53 66 59 5 277 274 267 288 355 353 344 337 357 14 359 345 342 345 342 351 346 341 339 333 329 313 278 235 220 221 243 261 273 287 275 259 264 273 265 265 268 236 218 278 293 126 156 133 102 126 132 123 276 303 307 193 153 112 106 98 98 100 98 95 74 50
18 30 100 92 85 334 310 296 16 23 82 303 111 166 105 81 65 50 31 75 31 66 14 336 315 311 332 341 343 341 347 349 341 336 338 340 339 332 329 332 334 339 332 328 328 323 327 330 324 295 259 249 246 242 253 262 265 252 251 261 252 228 225 263 268 222 186 159 164 152 121 101 85 294 334 351 308 112 99 91 104 113 115 114 107 90 65
78 30 50 40 83 15 6 74 110 32 123 177 296 103 44 2 86 79 33 354 25 3 65 347 335 329 332 335 340 337 334 333 327 325 323 321 324 326 323 319 316 316 299 301 306 306 309 316 320 324 324 308 274 253 245 246 250 254 253 253 268 269 247 216 200 202 202 216 260 216 161 136 139 191 277 284 320 15 118 126 127 125 127 119 112 117 116
87 69 104 108 102 84 63 94 111 143 164 162 151 111 112 28 349 9 45 10 348 342 11 348 326 327 326 309 310 315 302 305 307 305 300 296 297 299 300 305 310 310 299 294 289 293 298 292 292 300 303 303 302 283 264 251 246 240 232 242 247 241 243 238 221 222 210 208 210 192 181 149 144 157 176 142 90 53 116 130 143 144 158 149 149 152 147
113 80 43 70 87 78 77 72 124 118 96 16 94 95 55 357 336 11 43 6 347 355 358 2 326 304 298 307 311 311 309 309 300 298 299 300 295 292 297 303 309 308 307 303 300 296 288 277 274 270 277 271 278 281 294 295 283 285 282 257 234 240 250 246 237 222 208 200 184 182 163 140 148 154 144 138 150 162 152 165 168 158 162 154 151 156 165
77 72 344 23 116 100 104 123 130 117 97 56 104 96 46 22 30 38 30 65 13 344 354 336 313 310 312 308 302 301 309 311 308 308 308 305 305 304 305 299 305 307 304 302 300 301 300 293 279 269 270 271 252 255 278 286 284 277 269 258 271 268 255 255 249 231 203 199 198 193 152 111 96 128 162 154 153 164 171 163 157 148 150 154 155 161 171
120 177 216 284 229 143 106 85 56 37 38 28 40 126 152 154 148 140 141 74 9 357 342 304 309 306 310 315 315 323 323 320 319 318 315 313 309 302 293 295 297 293 293 292 293 294 290 289 281 276 269 264 268 265 259 271 281 293 305 309 300 295 280 244 220 214 221 229 214 186 130 115 117 100 102 158 159 170 170 171 160 164 159 167 175 177 183
21 32 305 297 218 203 159 64 110 151 145 153 261 357 43 70 54 2 330 40 306 292 279 282 312 324 323 333 331 334 328 321 320 317 314 313 310 309 310 306 301 290 290 290 288 288 286 285 280 275 269 262 257 259 261 256 251 264 274 276 268 269 278 295 279 241 206 198 199 149 108 81 61 92 148 185 203 203 215 175 170 165 183 188 187 189 169
41 172 276 15 35 312 318 338 333 300 323 110 63 49 53 34 28 330 25 325 315 324 324 2 16 11 338 337 338 323 313 306 304 304 303 303 303 300 299 300 298 298 291 287 288 287 285 285 282 271 266 265 259 253 256 269 271 257 247 249 252 256 254 264 284 304 271 225 165 142 141 133 126 86 70 75 52 166 206 247 217 208 171 180 187 165 155
213 234 226 198 171 216 239 253 307 322 7 78 69 64 5 336 360 36 19 5 11 29 14 38 29 352 336 327 324 316 313 305 299 294 297 298 297 295 297 296 293 289 287 285 284 281 281 284 278 272 266 263 270 265 257 257 266 272 265 249 237 237 233 239 243 238 241 221 158 145 149 149 138 131 106 37 37 37 32 5 176 156 167 146 148 154 152
209 209 211 189 143 198 282 308 311 327 65 93 71 348 343 360 356 5 47 62 62 19 21 7 3 340 330 325 324 311 305 301 300 298 292 287 284 287 288 284 283 284 282 280 277 276 282 282 282 280 276 272 267 264 256 251 239 243 249 252 258 250 234 222 223 233 212 173 153 140 151 150 149 145 132 107 44 29 33 44 62 121 143 145 152 148 143
183 226 141 177 187 183 245 252 303 26 23 82 108 353 11 26 356 38 85 72 62 66 7 337 333 329 331 320 311 305 304 303 301 300 299 295 291 287 285 284 281 278 278 280 282 283 285 282 283 282 281 277 273 276 273 266 258 254 249 240 242 242 236 225 214 214 181 155 156 149 146 145 149 146 141 141 119 79 32 47 56 57 89 127 130 130 125
129 106 109 47 74 25 323 352 353 12 336 350 36 10 8 24 27 69 99 101 104 145 3 315 310 304 306 305 312 311 306 305 306 301 295 292 292 290 286 283 283 281 281 279 278 279 279 280 279 277 274 273 271 266 264 260 256 251 248 242 235 228 227 228 224 216 203 181 172 175 171 168 166 166 163 150 144 137 118 93 55 47 49 67 106 112 108
110 129 70 23 358 320 350 37 263 278 284 319 60 55 22 1 343 347 193 128 11 358 311 281 282 291 299 294 294 296 300 299 298 298 298 295 292 291 289 287 286 283 278 276 275 271 272 276 276 274 272 269 264 260 257 255 250 248 244 241 239 232 226 221 220 220 213 184 176 172 173 168 166 162 156 156 148 146 148 142 131 120 119 75 55 99 117
69 314 128 129 249 244 268 286 263 266 286 331 64 55 354 13 10 341 351 15 3 332 315 302 297 302 302 302 303 301 302 304 303 303 300 296 295 295 294 293 291 286 282 276 271 272 271 269 268 269 270 269 262 255 251 247 245 243 240 235 231 231 228 223 222 221 213 186 172 170 174 175 170 159 151 147 143 140 132 130 129 128 107 91 91 70 97
17 350 316 210 199 209 215 237 65 68 30 360 128 124 21 7 335 357 6 338 327 317 309 304 303 297 293 303 310 308 309 312 312 310 303 299 299 302 301 299 294 285 280 276 276 277 277 279 278 276 276 274 270 262 255 247 241 238 234 229 226 224 221 215 211 208 210 189 173 174 165 154 147 137 141 137 136 135 136 135 133 130 127 128 116 98 79
248 292 17 290 261 116 112 203 215 213 129 329 13 297 265 359 355 328 324 337 333 322 304 303 301 304 312 312 309 312 317 316 307 303 302 305 303 300 302 303 306 290 278 281 284 289 293 290 285 279 276 271 266 260 251 243 237 233 229 223 218 216 215 199 195 195 197 192 172 155 150 149 151 150 146 146 144 142 139 140 141 137 136 136 130 131 133
296 346 23 250 67 97 133 200 179 168 130 341 34 6 331 343 249 289 287 293 296 293 303 312 313 316 318 317 319 321 317 310 309 309 312 312 307 310 313 322 343 341 333 320 308 295 287 284 283 280 280 282 277 269 257 244 233 226 223 219 216 208 202 196 193 186 180 162 152 151 149 142 146 147 144 137 133 131 133 137 137 134 135 137 138 137 137
56 345 16 292 215 151 140 201 149 149 177 279 54 296 263 270 230 230 255 261 263 267 291 326 334 326 320 323 323 326 321 319 319 323 322 324 337 348 349 347 333 316 302 298 297 299 297 296 303 307 305 298 302 296 281 262 246 235 226 210 203 192 195 190 188 178 160 156 154 151 150 148 148 136 133 137 143 144 144 141 138 138 140 141 144 142 142
129 312 318 291 337 144 188 188 149 193 201 238 234 235 248 234 214 218 234 242 266 272 287 308 316 321 325 323 331 335 332 332 331 343 355 358 359 354 347 333 320 308 298 296 297 299 318 328 324 316 316 321 328 323 315 298 266 228 214 195 175 167 165 180 165 154 143 153 160 156 157 150 148 147 149 143 140 139 137 133 133 136 140 139 136 138 144
179 193 205 196 179 176 182 221 193 196 234 243 240 248 258 239 213 224 239 256 268 275 272 283 297 316 324 331 340 343 343 354 5 5 0 1 359 348 335 326 316 309 289 300 331 352 348 333 330 329 328 346 2 1 359 358 13 44 101 104 113 116 126 130 132 122 125 113 82 134 129 137 137 138 136 135 132 132 129 130 134 136 131 123 125 132 139
184 207 191 204 202 190 182 180 186 209 229 251 282 279 254 246 224 226 232 266 280 253 249 275 299 315 325 342 353 349 357 4 1 1 3 2 347 334 325 324 328 343 353 6 10 356 344 337 340 336 343 3 19 21 19 27 44 60 67 79 81 92 101 111 111 119 115 125 125 120 115 120 118 117 121 123 121 118 120 129 138 136 128 122 121 111 113
164 176 183 216 229 226 210 212 209 210 215 235 242 253 269 261 231 231 246 258 278 298 275 287 315 323 332 4 2 355 359 0 1 1 359 352 341 330 333 356 14 18 8 6 3 352 340 339 337 345 359 10 24 31 29 36 51 56 70 77 81 78 82 88 93 93 101 109 104 103 103 103 104 106 108 105 111 123 130 131 130 123 121 124 123 112 104
164 174 184 188 188 163 169 235 234 250 267 264 263 247 251 306 17 247 260 310 341 318 291 345 2 356 348 1 360 2 8 6 3 360 348 342 341 346 355 25 26 17 11 14 345 337 332 337 337 355 5 17 22 35 33 37 55 60 67 69 74 77 81 81 80 85 85 85 90 97 100 101 103 104 114 123 128 126 121 121 114 114 118 126 124 122 120
195 166 171 183 193 208 242 242 240 246 270 309 289 208 149 120 87 74 54 24 12 339 347 15 14 350 344 5 27 20 12 9 8 0 350 345 346 4 25 33 20 9 11 353 321 324 328 333 344 7 12 19 24 31 31 36 47 59 70 72 81 85 87 91 93 95 96 98 97 102 109 112 116 119 118 115 117 117 116 115 118 123 122 122 121 121 122
212 172 181 192 204 222 240 266 276 242 240 262 255 270 144 129 113 84 49 14 358 5 28 10 1 21 19 45 52 32 22 15 10 357 350 352 343 20 43 31 21 4 327 303 308 322 334 342 4 17 21 16 26 32 36 39 43 52 55 61 63 70 74 82 85 91 90 95 96 96 91 86 90 94 99 102 104 102 105 113 115 116 113 118 116 118 117
196 181 193 201 222 240 251 267 264 256 264 235 162 168 215 111 101 95 66 32 359 15 52 44 32 33 23 36 55 56 33 26 12 0 357 348 358 23 33 24 10 357 351 347 351 353 356 3 15 27 21 18 23 34 39 43 50 55 59 62 65 67 69 73 74 75 75 77 77 74 76 77 81 86 92 94 98 101 104 101 98 100 100 100 101 106 104
196 197 208 203 224 234 233 236 257 261 258 230 196 199 181 142 127 99 96 71 7 34 55 67 63 46 42 45 47 54 49 25 20 19 2 1 26 27 38 25 351 351 352 352 358 2 8 16 18 21 19 23 26 33 40 41 47 53 56 57 61 63 65 65 70 72 76 79 79 83 88 91 87 84 85 86 86 87 86 87 87 86 90 93 89 84 83
204 198 199 212 230 234 241 228 243 270 282 235 194 192 191 158 127 140 130 106 73 47 65 64 88 80 58 50 53 50 36 13 17 21 25 37 34 26 35 16 347 352 355 1 9 12 13 17 18 21 16 26 32 37 47 50 52 54 58 55 59 61 67 68 69 70 70 72 72 75 73 79 84 84 79 81 77 77 80 80 78 76 75 78 79 79 84
193 193 203 210 226 236 242 241 220 231 249 236 197 196 185 138 126 125 102 96 90 68 59 77 82 69 61 63 63 54 34 13 11 359 27 39 44 53 51 355 344 357 2 12 11 18 17 18 21 21 26 34 37 38 45 48 52 55 58 59 63 65 65 65 67 69 70 72 70 69 70 73 75 79 80 77 76 75 75 75 78 76 78 77 81 77 73
188 191 198 203 215 228 240 254 259 185 205 228 218 192 158 143 143 131 125 114 92 85 90 87 96 94 89 88 80 63 48 26 18 354 35 30 30 26 21 15 360 2 11 13 12 19 16 20 21 26 28 34 39 42 44 45 49 53 56 60 63 66 69 69 67 69 71 73 72 73 74 74 74 75 78 80 80 76 76 77 79 79 80 77 75 74 73
193 191 203 209 211 212 228 233 242 210 211 205 190 162 155 156 151 144 130 126 127 113 99 101 111 121 113 103 102 114 113 66 57 33 55 47 49 15 345 1 6 14 13 19 21 20 22 21 27 31 34 34 39 43 50 47 51 53 59 61 63 65 67 71 74 74 75 74 73 73 72 73 75 77 79 80 82 82 82 83 83 81 83 79 73 69 66
203 208 209 208 213 213 215 225 228 201 203 191 177 178 170 159 157 155 137 136 136 142 139 134 127 136 137 122 111 88 53 44 32 42 83 98 98 354 324 10 16 23 24 25 26 24 25 27 31 33 34 37 40 44 43 43 47 52 57 60 63 66 69 69 71 73 74 77 77 77 77 79 78 77 80 82 85 88 89 91 89 83 83 85 87 88 83
198 207 210 216 219 218 217 226 232 207 154 159 169 192 201 189 167 165 163 157 156 162 148 130 124 130 140 144 138 117 106 74 41 17 39 46 49 50 36 41 38 38 36 35 31 32 30 31 32 34 37 38 42 45 45 47 46 49 49 54 56 65 69 74 76 78 76 77 77 78 78 78 80 82 83 83 84 87 90 88 88 88 87 84 80 77 74
180 196 211 215 223 222 214 219 219 208 172 188 193 193 189 186 177 181 162 148 153 148 136 133 130 125 118 121 137 148 154 142 107 54 345 69 70 63 58 59 55 50 45 37 36 29 30 33 36 38 38 40 43 45 46 49 53 54 55 53 54 53 58 63 67 71 74 75 76 77 77 76 76 75 77 77 77 75 76 81 85 85 84 83 81 75 76
184 198 208 213 225 222 199 198 201 212 219 200 186 194 182 178 182 171 158 153 155 155 157 158 149 149 141 132 133 153 188 191 147 165 216 153 109 97 77 65 59 58 54 52 43 33 31 35 38 39 40 41 45 46 50 52 54 57 57 60 61 62 64 67 68 72 77 77 80 80 83 83 80 79 79 79 79 78 77 74 72 72 79 81 79 79 73
198 195 202 211 221 226 205 188 201 212 219 183 190 192 177 160 175 194 171 163 171 170 165 172 172 166 158 153 141 141 130 116 93 134 170 188 129 120 113 96 73 67 68 66 54 43 33 38 38 40 42 42 41 46 50 55 55 56 60 61 64 64 66 70 73 76 80 83 80 83 84 89 93 91 87 83 79 77 75 76 75 83 85 82 80 81 75
175 184 205 210 210 214 210 194 199 203 214 202 196 183 165 174 194 183 171 168 155 160 175 189 205 196 166 161 166 168 170 166 155 132 95 93 100 109 113 109 97 91 79 73 67 62 53 49 44 42 40 42 47 49 51 54 55 56 57 59 60 62 60 61 62 62 65 70 75 77 87 95 93 89 85 85 87 86 83 83 80 72 69 72 75 79 80
190 196 205 207 208 214 217 214 203 200 213 201 181 171 181 189 192 184 171 170 165 171 172 166 194 227 211 174 159 171 172 166 178 179 119 123 114 120 119 113 106 100 92 84 77 70 66 59 53 50 47 45 49 55 55 56 58 60 58 58 60 59 62 65 65 64 59 59 67 71 74 81 88 87 86 84 87 88 85 75 71 67 64 57 54 56 64